Date String (YYYY-MM-DD hh:mm:ss) UTC,Instrument flags,absolute air pressure of the measurement (hPa),sample flow rate (lpm),inlet stack bypass flow (lpm),air temperature of the measurement (°C),ambient temperature measured by the external sensor (°C),aerosol sample conditioner tube jacket temperature (°C),OPC LED temperature (°C),internal box temperature (°C),relative humidity of the measurement (%),span deviation,mass concentration of particles derived from Lorenz-Mie calculation of OPC scattering (μg/m³),mass concentration of particles derived from Lorenz-Mie calculation of OPC scattering (μg/m³),mass concentration of particles derived from Lorenz-Mie calculation of OPC scattering (μg/m³)
DateTimeUTC,F1_M11,P_M11,Q1_M11,Q2_M11,T1_M11,T2_M11,T3_M11,T4_M11,T5_M11,U1_M11,ZSPAN_M11,X0_M11,X2_M11,X1_M11
2023-11-12 06:00:00,SystemResetWarning,0831.3,5.00,000.00,023.8,022.6,000.0,032.2,025.1,7.8,0000.0,0007.03,0002.35,0001.52
2023-11-12 06:01:00,SystemResetWarning,0831.3,5.01,000.00,023.8,022.6,000.0,032.2,025.1,7.8,0000.0,0006.90,0002.31,0001.54
2023-11-12 06:02:00,SystemResetWarning,0831.4,5.00,000.00,023.7,022.6,000.0,032.2,025.1,7.9,0000.0,0007.25,0002.31,0001.54
2023-11-12 06:03:00,SystemResetWarning,0831.3,5.00,000.00,023.7,022.6,000.0,032.2,025.2,7.9,0000.0,0007.94,0002.33,0001.53
2023-11-12 06:04:00,SystemResetWarning,0831.3,5.00,000.00,023.7,022.6,000.0,032.2,025.1,7.9,0000.0,0008.01,0002.30,0001.52
2023-11-12 06:05:00,SystemResetWarning,0831.3,4.99,000.00,023.7,022.6,000.0,032.2,025.1,7.9,0000.0,0007.99,0002.28,0001.51
2023-11-12 06:06:00,SystemResetWarning,0831.4,4.99,000.00,023.7,022.5,000.0,032.2,025.1,7.9,0000.0,0008.19,0002.29,0001.50
2023-11-12 06:07:00,SystemResetWarning,0831.3,5.00,000.00,023.7,022.5,000.0,032.1,025.1,7.8,0000.0,0008.41,0002.29,0001.50
2023-11-12 06:08:00,SystemResetWarning,0831.4,5.00,000.00,023.7,022.5,000.0,032.1,025.1,7.8,0000.0,0007.93,0002.25,0001.50
2023-11-12 06:09:00,SystemResetWarning,0831.3,5.00,000.00,023.7,022.6,000.0,032.1,025.1,7.8,0000.0,0007.62,0002.21,0001.49
2023-11-12 06:10:00,SystemResetWarning,0831.3,5.00,000.00,023.7,022.5,000.0,032.1,025.0,7.8,0000.0,0007.82,0002.18,0001.49
2023-11-12 06:11:00,SystemResetWarning,0831.3,5.00,000.00,023.7,022.6,000.0,032.1,025.1,7.8,0000.0,0006.97,0002.13,0001.46
2023-11-12 06:12:00,SystemResetWarning,0831.4,5.00,000.00,023.7,022.5,000.0,032.1,025.1,7.6,0000.0,0007.06,0002.12,0001.43
2023-11-12 06:13:00,SystemResetWarning,0831.3,5.01,000.00,023.6,022.5,000.0,032.1,025.1,7.6,0000.0,0006.78,0002.08,0001.42
2023-11-12 06:14:00,SystemResetWarning,0831.3,5.00,000.00,023.6,022.5,000.0,032.1,025.1,7.5,0000.0,0006.26,0002.05,0001.42
2023-11-12 06:15:00,SystemResetWarning,0831.3,5.00,000.00,023.6,022.5,000.0,032.0,025.0,7.6,0000.0,0006.21,0002.03,0001.41
2023-11-12 06:16:00,SystemResetWarning,0831.3,4.99,000.00,023.6,022.5,000.0,032.0,025.0,7.6,0000.0,0006.33,0002.07,0001.41
2023-11-12 06:17:00,SystemResetWarning,0831.4,5.00,000.00,023.6,022.5,000.0,032.0,024.9,7.5,0000.0,0005.90,0002.02,0001.40
2023-11-12 06:18:00,SystemResetWarning,0831.4,5.00,000.00,023.6,022.5,000.0,032.0,024.9,7.6,0000.0,0005.46,0001.98,0001.38
2023-11-12 06:19:00,SystemResetWarning,0831.4,4.99,000.00,023.6,022.4,000.0,032.0,024.9,7.7,0000.0,0005.41,0001.97,0001.37
2023-11-12 06:20:00,SystemResetWarning,0831.4,5.00,000.00,023.6,022.4,000.0,032.0,025.0,7.7,0000.0,0006.61,0001.97,0001.35
2023-11-12 06:21:00,SystemResetWarning,0831.4,5.02,000.00,023.6,022.4,000.0,032.0,025.0,7.7,0000.0,0005.96,0001.90,0001.33
2023-11-12 06:22:00,SystemResetWarning,0831.4,5.01,000.00,023.6,022.4,000.0,032.0,025.0,7.6,0000.0,0005.91,0001.90,0001.33
2023-11-12 06:23:00,SystemResetWarning,0831.3,5.00,000.00,023.6,022.5,000.0,032.0,025.0,7.6,0000.0,0006.19,0001.88,0001.33
2023-11-12 06:24:00,SystemResetWarning,0831.3,4.99,000.00,023.6,022.5,000.0,032.0,025.0,7.6,0000.0,0006.87,0001.90,0001.32
2023-11-12 06:25:00,SystemResetWarning,0831.3,5.00,000.00,023.6,022.5,000.0,032.0,025.0,7.6,0000.0,0006.34,0001.91,0001.31
2023-11-12 06:26:00,SystemResetWarning,0831.3,5.00,000.00,023.6,022.5,000.0,032.0,025.0,7.5,0000.0,0006.52,0001.97,0001.32
2023-11-12 06:27:00,SystemResetWarning,0831.3,5.00,000.00,023.6,022.5,000.0,032.0,025.0,7.5,0000.0,0006.44,0001.93,0001.31
2023-11-12 06:28:00,SystemResetWarning,0831.3,5.00,000.00,023.6,022.5,000.0,032.0,025.0,7.5,0000.0,0006.54,0001.96,0001.30
2023-11-12 06:29:00,SystemResetWarning,0831.3,5.00,000.00,023.6,022.5,000.0,032.0,025.0,7.5,0000.0,0006.62,0001.99,0001.30
2023-11-12 06:30:00,SystemResetWarning,0831.3,5.00,000.00,023.5,022.5,000.0,032.0,025.0,7.5,0000.0,0006.68,0001.98,0001.30
2023-11-12 06:31:00,SystemResetWarning,0831.4,5.00,000.00,023.5,022.5,000.0,031.9,024.9,7.5,0000.0,0007.14,0001.95,0001.30
2023-11-12 06:32:00,SystemResetWarning,0831.3,5.00,000.00,023.5,022.5,000.0,031.9,024.9,7.5,0000.0,0007.09,0001.97,0001.29
2023-11-12 06:33:00,SystemResetWarning,0831.3,5.00,000.00,023.5,022.5,000.0,031.9,024.9,7.4,0000.0,0007.15,0002.00,0001.29
2023-11-12 06:34:00,SystemResetWarning,0831.3,5.00,000.00,023.5,022.4,000.0,031.9,025.0,7.4,0000.0,0007.04,0002.04,0001.29
2023-11-12 06:35:00,SystemResetWarning,0831.4,5.00,000.00,023.5,022.4,000.0,031.9,024.9,7.4,0000.0,0006.08,0002.02,0001.29
2023-11-12 06:36:00,SystemResetWarning,0831.4,5.00,000.00,023.5,022.4,000.0,031.9,024.9,7.4,0000.0,0005.84,0001.99,0001.28
2023-11-12 06:37:00,SystemResetWarning,0831.4,4.99,000.00,023.5,022.4,000.0,031.9,024.9,7.5,0000.0,0006.07,0001.93,0001.27
2023-11-12 06:38:00,SystemResetWarning,0831.3,5.00,000.00,023.5,022.4,000.0,031.9,024.9,7.5,0000.0,0006.17,0001.96,0001.26
2023-11-12 06:39:00,SystemResetWarning,0831.4,5.00,000.00,023.5,022.4,000.0,031.9,024.8,7.5,0000.0,0006.04,0001.93,0001.25
2023-11-12 06:40:00,SystemResetWarning,0831.4,5.01,000.00,023.5,022.4,000.0,031.9,024.8,7.6,0000.0,0005.91,0001.88,0001.24
2023-11-12 06:41:00,SystemResetWarning,0831.4,5.00,000.00,023.5,022.4,000.0,031.9,024.8,7.6,0000.0,0005.90,0001.88,0001.23
2023-11-12 06:42:00,SystemResetWarning,0831.5,5.01,000.00,023.5,022.3,000.0,031.9,024.9,7.6,0000.0,0005.17,0001.87,0001.23
2023-11-12 06:43:00,SystemResetWarning,0831.5,5.00,000.00,023.5,022.3,000.0,031.9,024.9,7.5,0000.0,0004.99,0001.86,0001.23
2023-11-12 06:44:00,SystemResetWarning,0831.5,4.99,000.00,023.5,022.3,000.0,031.9,024.9,7.6,0000.0,0005.04,0001.85,0001.23
2023-11-12 06:45:00,SystemResetWarning,0831.5,5.00,000.00,023.5,022.4,000.0,031.9,024.9,7.6,0000.0,0005.02,0001.85,0001.23
2023-11-12 06:46:00,SystemResetWarning,0831.5,5.00,000.00,023.5,022.4,000.0,031.9,024.9,7.5,0000.0,0004.99,0001.85,0001.23
2023-11-12 06:47:00,SystemResetWarning,0831.5,5.00,000.00,023.5,022.4,000.0,031.9,024.9,7.5,0000.0,0005.05,0001.87,0001.23
2023-11-12 06:48:00,SystemResetWarning,0831.5,5.00,000.00,023.5,022.4,000.0,031.9,025.0,7.5,0000.0,0004.20,0001.85,0001.23
2023-11-12 06:49:00,SystemResetWarning,0831.5,5.02,000.00,023.5,022.4,000.0,031.9,024.9,7.4,0000.0,0004.13,0001.80,0001.23
2023-11-12 06:50:00,SystemResetWarning,0831.5,4.99,000.00,023.5,022.4,000.0,031.9,024.9,7.4,0000.0,0004.07,0001.77,0001.22
2023-11-12 06:51:00,SystemResetWarning,0831.5,4.99,000.00,023.5,022.4,000.0,031.9,024.9,7.6,0000.0,0004.05,0001.76,0001.22
2023-11-12 06:52:00,SystemResetWarning,0831.5,5.00,000.00,023.5,022.4,000.0,031.9,024.9,7.6,0000.0,0004.04,0001.76,0001.21
2023-11-12 06:53:00,SystemResetWarning,0831.5,5.00,000.00,023.5,022.4,000.0,031.9,024.9,7.4,0000.0,0003.34,0001.73,0001.20
2023-11-12 06:54:00,SystemResetWarning,0831.6,5.00,000.00,023.5,022.4,000.0,031.9,024.9,7.4,0000.0,0003.03,0001.72,0001.20
2023-11-12 06:55:00,SystemResetWarning,0831.6,5.00,000.00,023.5,022.4,000.0,031.9,024.9,7.5,0000.0,0002.94,0001.72,0001.19
2023-11-12 06:56:00,SystemResetWarning,0831.5,5.00,000.00,023.5,022.4,000.0,031.9,025.0,7.6,0000.0,0002.81,0001.68,0001.18
2023-11-12 06:57:00,SystemResetWarning,0831.5,5.00,000.00,023.5,022.5,000.0,031.9,025.0,7.3,0000.0,0002.71,0001.64,0001.18
2023-11-12 06:58:00,SystemResetWarning,0831.6,4.99,000.00,023.5,022.5,000.0,031.9,025.0,7.2,0000.0,0003.05,0001.62,0001.17
2023-11-12 06:59:00,SystemResetWarning,0831.6,4.99,000.00,023.5,022.5,000.0,031.9,025.0,7.3,0000.0,0003.98,0001.61,0001.16
